This demonstration page uses our WeatherBlox Daily Observations layout. Learn more.

Left ArrowRight Arrow

44.8408, -93.29828

Hourly Observations for October 13, 2021

Temp ( °F °C ) Dew Point ( °F °C ) Humidity (%) Winds ( mph kmh ) Pressure ( in mb ) Visibility ( mi km ) Precip ( " mm )
12:53 am 00:53 Mostly Cloudy 58 14.4 55 12.8 90 90 NNE 3 6 29.93 1014 10 16 N/A
1:53 am 01:53 Mostly Cloudy 57 13.9 55 12.8 93 93 N N/A 29.93 1014 10 16 N/A
2:53 am 02:53 Partly Cloudy 56 13.3 55 12.8 97 97 E 3 6 29.93 1013 10 16 N/A
3:53 am 03:53 Partly Cloudy 56 13.3 55 12.8 97 97 E 8 13 29.88 1012 10 16 N/A
4:53 am 04:53 Mostly Clear 56 13.3 55 12.8 97 97 E 8 13 29.85 1011 10 16 N/A
5:36 am 05:36 Mostly Clear 56 13.3 55 12.8 97 97 E 12 19 29.81 1009 10 16 N/A
5:53 am 05:53 Mostly Cloudy 57 13.9 55 12.8 93 93 E 10 17 29.83 1010 10 16 N/A
6:53 am 06:53 Mostly Cloudy 57 13.9 54 12.2 90 90 SE 8 13 29.84 1010 10 16 N/A
7:53 am 07:53 Cloudy 57 13.9 54 12.2 90 90 SE 12 19 29.84 1010 10 16 N/A
8:53 am 08:53 Cloudy 58 14.4 54 12.2 87 87 ESE 14 22 29.81 1010 10 16 0.00 0.00
9:40 am 09:40 Cloudy 58 14.4 54 12.2 87 87 SE 18 30 29.76 1008 10 16 0.01 0.25
9:53 am 09:53 Mostly Cloudy with Light Rain 58 14.4 54 12.2 87 87 SE 16 26 29.75 1007 10 16 0.01 0.25
10:46 am 10:46 Cloudy 58 14.4 54 12.2 87 87 SE 21 33 29.71 1006 10 16 0.00 0.00
10:53 am 10:53 Cloudy 59 15 54 12.2 83 83 SE 16 26 29.70 1006 10 16 0.00 0.00
11:27 am 11:27 Cloudy 60 15.6 55 12.8 84 84 ESE 26 43 29.63 1003 10 16 0.00 0.00
11:53 am 11:53 Mostly Cloudy 62 16.7 55 12.8 78 78 ESE 28 44 29.60 1002 10 16 0.00 0.00
12:53 pm 12:53 Cloudy 62 16.7 53 11.7 73 73 SE 29 46 29.58 1002 10 16 0.00 0.00
1:53 pm 13:53 Cloudy with Light Rain 60 15.6 54 12.2 80 80 SSE 17 28 29.58 1002 8 13 0.00 0.00
2:53 pm 14:53 Mostly Cloudy with Light Rain 60 15.6 57 13.9 90 90 SE 20 31 29.56 1001 8 13 0.00 0.00
3:13 pm 15:13 Mostly Cloudy 60 15.6 57 13.9 90 90 SE 21 33 29.53 1000 10 16 0.00 0.00
3:53 pm 15:53 Cloudy 61 16.1 57 13.9 87 87 SSE 18 30 29.53 1000 10 16 0.00 0.00
4:53 pm 16:53 Mostly Cloudy 62 16.7 57 13.9 84 84 SSE 17 28 29.51 999 10 16 N/A
5:53 pm 17:53 Cloudy 63 17.2 58 14.4 84 84 SE 16 26 29.50 999 10 16 N/A
6:53 pm 18:53 Mostly Cloudy 62 16.7 58 14.4 86 86 SSE 16 26 29.50 999 10 16 N/A
7:29 pm 19:29 Partly Cloudy 63 17.2 58 14.4 84 84 S 13 20 29.52 1000 10 16 N/A
7:53 pm 19:53 Partly Cloudy 64 17.8 47 8.3 54 54 SW 16 26 29.54 1000 10 16 N/A
8:53 pm 20:53 Mostly Clear 61 16.1 40 4.4 46 46 SW 16 26 29.58 1002 10 16 N/A
9:53 pm 21:53 Mostly Clear 58 14.4 41 5 53 53 S 12 19 29.59 1002 10 16 N/A
10:53 pm 22:53 Clear 57 13.9 40 4.4 53 53 SSW 14 22 29.60 1002 10 16 N/A
11:53 pm 23:53 Clear 57 13.9 39 3.9 51 51 SSW 14 22 29.60 1002 10 16 N/A

Powered by AerisWeather